Regional Weather Roundup
Issued by NWS Sioux Falls, SD

Home | Current Version | Previous Version | Text Only | Print | Product List | Glossary Off
Versions: 1 2 3 4 5 6 7 8 9 10 11 12 13 14 15 16 17 18 19 20 21 22 23 24 25 26 27 28 29 30 31 32 33 34 35 36 37 38 39 40 41 42 43 44 45 46 47 48 49 50

000
ASUS43 KFSD 180102
RWRFSD

WEATHER ROUNDUP FOR SE SOUTH DAKOTA/SW MINNESOTA/NW IOWA
NATIONAL WEATHER SERVICE SIOUX FALLS SD
700 PM CST WED JAN 17 2018

NOTE: "FAIR" INDICATES FEW OR NO CLOUDS BELOW 12,000 FEET WITH NO
SIGNIFICANT WEATHER AND OR OBSTRUCTIONS TO VISIBILITY.


SDZ038>040-050-052>070-180200-
SOUTHEAST SOUTH DAKOTA

CITY           SKY/WX    TMP DP  RH WIND       PRES   REMARKS
BROOKINGS      CLOUDY    22  16  78 SW6       30.15R WCI  14
CHAMBERLAIN    CLEAR     34  26  72 W5        30.17S WCI  30
HURON          PTCLDY    30  21  69 SW7       30.14F WCI  23
MADISON        FAIR      25  21  86 SW13G18   30.13F WCI  13
MITCHELL       PTCLDY    31  22  69 W5        30.18S WCI  26
SIOUX FALLS    CLOUDY    26  18  71 SW8       30.16F WCI  18
WINNER         FAIR      36  26  67 W10       30.19S
YANKTON        CLOUDY    32  19  58 W3        30.21F
$$

MNZ071-072-080-081-089-090-097-098-180200-
SOUTHWEST MINNESOTA

CITY           SKY/WX    TMP DP  RH WIND       PRES   REMARKS
FAIRMONT       CLOUDY    27  18  69 SW15G24   30.14F WCI  15
JACKSON        CLOUDY    27  18  69 SW14G25   30.14F WCI  15
LUVERNE        CLOUDY    19  14  79 S6        30.18F WCI  11
MARSHALL       CLOUDY    24  17  74 W15       30.13R WCI  11
MONTEVIDEO     CLEAR     28  18  64 W8        30.10F WCI  20
PIPESTONE      CLOUDY    21  16  79 W8        30.15R WCI  12
REDWOOD FALLS  CLOUDY    26  16  65 W13       30.13R WCI  15
WINDOM         CLOUDY    27   9  46 SW15      30.13S WCI  15
WORTHINGTON    CLOUDY    26  18  71 SW25G32   30.14S WCI  11
$$

IAZ001>003-012>014-020>022-031-032-NEZ013-014-SDZ071-180200-
NORTHWEST IOWA

CITY           SKY/WX    TMP DP  RH WIND       PRES   REMARKS
CHEROKEE       CLOUDY    26  17  69 SW9       30.24R WCI  17
DENISON        CLOUDY    21  12  68 S14G20    30.31S WCI   8
ESTHERVILLE    CLOUDY    26  18  71 SW26G36   30.13F WCI  10
LE MARS        CLOUDY    27  18  69 S6        30.25R WCI  20
ORANGE CITY    CLOUDY    27  19  74 SW9       30.22S WCI  17
SHELDON        CLOUDY    27  18  69 SW15G22   30.18F WCI  15
SIOUX CITY     CLEAR     27  17  66 S10       30.28R WCI  17
SPENCER        CLOUDY    26  17  68 SW16      30.20F WCI  14
STORM LAKE     CLOUDY    23  16  74 SW18      30.21F WCI   9
$$

ABBREVIATIONS USED IN REMARKS
   TC - TEMPERATURE IN CELSIUS
  WCI - WIND CHILL INDEX
   HX - HEAT INDEX
  VSB - VISIBILITY





USA.gov is the U.S. government's official web portal to all federal, state and local government web resources and services.